Time,TemperatureF,DewpointF,PressureIn,WindDirection,WindDirectionDegrees,WindSpeedMPH,WindSpeedGustMPH,Humidity,HourlyPrecipIn,Conditions,Clouds,dailyrainin,SoftwareType,DateUTC
2013-09-10 00:04:00,80.5,59.6,29.79,SSE,165,7.0,10.0,49,0.00,,CLR,0.00,VWS V14.01,2013-09-10 05:04:00,
2013-09-10 00:09:00,80.3,59.4,29.80,SSW,209,4.0,8.0,49,0.00,,CLR,0.00,VWS V14.01,2013-09-10 05:09:00,
2013-09-10 00:14:00,80.2,59.3,29.80,SSW,199,7.0,9.0,49,0.00,,CLR,0.00,VWS V14.01,2013-09-10 05:14:00,
2013-09-10 00:19:00,79.9,59.6,29.80,South,190,5.0,10.0,50,0.00,,CLR,0.00,VWS V14.01,2013-09-10 05:19:00,
2013-09-10 00:24:00,79.6,59.9,29.80,SSW,206,9.0,9.0,51,0.00,,CLR,0.00,VWS V14.01,2013-09-10 05:24:00,
2013-09-10 00:29:00,79.3,59.6,29.80,SW,214,3.0,10.0,51,0.00,,CLR,0.00,VWS V14.01,2013-09-10 05:29:00,
2013-09-10 00:34:00,79.2,60.1,29.80,South,191,6.0,8.0,52,0.00,,CLR,0.00,VWS V14.01,2013-09-10 05:34:00,
2013-09-10 00:39:00,78.9,59.8,29.81,SW,222,5.0,7.0,52,0.00,,CLR,0.00,VWS V14.01,2013-09-10 05:39:00,
2013-09-10 00:44:00,78.8,59.7,29.81,WSW,237,4.0,7.0,52,0.00,,CLR,0.00,VWS V14.01,2013-09-10 05:44:00,
2013-09-10 00:49:00,78.6,60.1,29.81,SW,220,3.0,8.0,53,0.00,,CLR,0.00,VWS V14.01,2013-09-10 05:49:00,
2013-09-10 00:54:00,78.4,59.9,29.81,SW,229,3.0,6.0,53,0.00,,CLR,0.00,VWS V14.01,2013-09-10 05:54:00,
2013-09-10 00:59:00,78.2,60.2,29.81,SW,229,4.0,7.0,54,0.00,,CLR,0.00,VWS V14.01,2013-09-10 05:59:00,
2013-09-10 01:04:00,78.0,60.0,29.81,SSW,199,4.0,7.0,54,0.00,,CLR,0.00,VWS V14.01,2013-09-10 06:04:00,
2013-09-10 01:09:00,78.0,60.0,29.81,SW,216,4.0,7.0,54,0.00,,CLR,0.00,VWS V14.01,2013-09-10 06:09:00,
2013-09-10 01:14:00,77.9,59.9,29.81,SW,231,5.0,7.0,54,0.00,,CLR,0.00,VWS V14.01,2013-09-10 06:14:00,
2013-09-10 01:19:00,77.9,59.9,29.81,SW,214,4.0,7.0,54,0.00,,CLR,0.00,VWS V14.01,2013-09-10 06:19:00,
2013-09-10 01:24:00,78.0,60.0,29.81,SW,216,4.0,7.0,54,0.00,,CLR,0.00,VWS V14.01,2013-09-10 06:24:00,
2013-09-10 01:29:00,77.9,60.5,29.81,SW,222,2.0,6.0,55,0.00,,CLR,0.00,VWS V14.01,2013-09-10 06:29:00,
2013-09-10 01:34:00,77.8,60.4,29.81,SW,233,7.0,8.0,55,0.00,,CLR,0.00,VWS V14.01,2013-09-10 06:34:00,
2013-09-10 01:39:00,77.7,60.3,29.82,SW,220,4.0,5.0,55,0.00,,CLR,0.00,VWS V14.01,2013-09-10 06:39:00,
2013-09-10 01:44:00,77.6,60.7,29.82,WSW,239,6.0,6.0,56,0.00,,CLR,0.00,VWS V14.01,2013-09-10 06:44:00,
2013-09-10 01:49:00,77.4,60.5,29.82,SW,219,4.0,7.0,56,0.00,,CLR,0.00,VWS V14.01,2013-09-10 06:49:00,
2013-09-10 01:54:00,77.3,60.4,29.82,SW,224,5.0,7.0,56,0.00,,CLR,0.00,VWS V14.01,2013-09-10 06:54:00,
2013-09-10 01:59:00,77.2,60.8,29.82,SW,216,3.0,5.0,57,0.00,,CLR,0.00,VWS V14.01,2013-09-10 06:59:00,
2013-09-10 02:04:00,77.1,60.7,29.82,SW,214,4.0,8.0,57,0.00,,CLR,0.00,VWS V14.01,2013-09-10 07:04:00,